Pagina principale
METAR-TAF:

METAR-TAF

Aeroporti :

Kélibia, Tunisia

latitudine: 36-51N, longitudine: 011-05E, altezza: 29 m

Osservazione

Il bollettino è stato emesso 1 ora e 11 minuti fa, alle 16:00 UTC
Vento 3 kt da ovest, variando fra sud e nord-ovest
Temperature 14°C
Umidità 72%
Pressione 1023 hPa
Visibilità 10 km o più
Poco nuvoloso ad un'altezza di 2000 ft

METAR: DTTL 201600Z 27003KT 190V310 9999 FEW020 14/09 Q1023

Ora: 18:11 (17:11 UTC)


TAF: mancante

Osservazioni e previsioni meteorologiche di più di 4000 aeroporti (messaggi METAR e TAF).

Le stazioni disponibili sono rappresentate dai dischi gialli e rossi sulla carta.

Puntare il mouse per vedere il nome della stazione.

Clicca sopra per visualizzare le osservazioni e previsioni meteorologiche.

Per cambiare la mappa : fare clic sui pulsanti verdi con una croce nera per ingrandire, il pulsante verde con un trattino per diminuire, o sulla freccia verde per le mappe adiacenti.


METAR-TAF: